,,PressureMeas_1m,,PRMeasQMR101_1,,RHStat155_1m_1,,SRMeasQMS101R_1m,,TAStat155_1m_1,,GenWind_1,,GenWind_1,
2018-06-12, 00:00:06,VALID,920.037,VALID,0.0,VALID,96.557,VALID,0.001,VALID,18.453,INVALID,360.0,VALID,0.0,
2018-06-12, 00:01:06,VALID,920.023,VALID,0.0,VALID,96.118,VALID,-0.013,VALID,18.542,INVALID,360.0,VALID,0.0,
2018-06-12, 00:02:06,VALID,920.035,VALID,0.0,VALID,95.242,VALID,-0.014,VALID,18.555,INVALID,360.0,VALID,0.0,
2018-06-12, 00:03:06,VALID,920.044,VALID,0.0,VALID,95.082,VALID,-0.01,VALID,18.605,INVALID,360.0,VALID,0.0,
2018-06-12, 00:04:06,VALID,920.049,VALID,0.0,VALID,94.744,VALID,0.001,VALID,18.641,INVALID,360.0,VALID,0.0,
2018-06-12, 00:05:06,VALID,920.06,VALID,0.0,VALID,94.639,VALID,0.004,VALID,18.679,INVALID,360.0,VALID,0.0,
2018-06-12, 00:06:06,VALID,920.06,VALID,0.0,VALID,94.027,VALID,0.012,VALID,18.698,INVALID,360.0,VALID,0.0,
2018-06-12, 00:07:06,VALID,920.065,VALID,0.0,VALID,93.449,VALID,-0.018,VALID,18.629,INVALID,360.0,VALID,0.0,
2018-06-12, 00:08:06,VALID,920.07,VALID,0.0,VALID,94.22,VALID,-0.0,VALID,18.613,INVALID,360.0,VALID,0.0,
2018-06-12, 00:09:06,VALID,920.077,VALID,0.0,VALID,94.551,VALID,0.002,VALID,18.634,INVALID,360.0,VALID,0.0,
2018-06-12, 00:10:06,VALID,920.078,VALID,0.0,VALID,94.251,VALID,-0.004,VALID,18.593,INVALID,360.0,VALID,0.0,
2018-06-12, 00:11:06,VALID,920.089,VALID,0.0,VALID,95.003,VALID,0.012,VALID,18.539,INVALID,360.0,VALID,0.0,
2018-06-12, 00:12:06,VALID,920.068,VALID,0.0,VALID,96.191,VALID,0.004,VALID,18.465,INVALID,360.0,VALID,0.0,
2018-06-12, 00:13:06,VALID,920.041,VALID,0.0,VALID,97.084,VALID,-0.003,VALID,18.434,INVALID,360.0,VALID,0.0,
2018-06-12, 00:14:06,VALID,920.027,VALID,0.0,VALID,97.443,VALID,-0.0,VALID,18.374,INVALID,360.0,VALID,0.0,
2018-06-12, 00:15:06,VALID,920.042,VALID,0.0,VALID,97.744,VALID,0.001,VALID,18.352,INVALID,360.0,VALID,0.0,
2018-06-12, 00:16:06,VALID,920.042,VALID,0.0,VALID,97.922,VALID,-0.002,VALID,18.327,INVALID,360.0,VALID,0.0,
2018-06-12, 00:17:06,VALID,920.049,VALID,0.0,VALID,98.012,VALID,0.013,VALID,18.295,INVALID,360.0,VALID,0.0,
2018-06-12, 00:18:06,VALID,920.06,VALID,0.0,VALID,98.059,VALID,0.018,VALID,18.25,INVALID,360.0,VALID,0.0,
2018-06-12, 00:19:06,VALID,920.051,VALID,0.0,VALID,98.074,VALID,0.005,VALID,18.242,INVALID,360.0,VALID,0.0,
2018-06-12, 00:20:06,VALID,920.048,VALID,0.0,VALID,98.13,VALID,0.009,VALID,18.268,INVALID,360.0,VALID,0.0,
2018-06-12, 00:21:06,VALID,920.031,VALID,0.0,VALID,97.964,VALID,-0.001,VALID,18.264,INVALID,360.0,VALID,0.0,
2018-06-12, 00:22:06,VALID,920.025,VALID,0.0,VALID,97.703,VALID,0.002,VALID,18.238,INVALID,360.0,VALID,0.0,
2018-06-12, 00:23:06,VALID,920.028,VALID,0.0,VALID,97.389,VALID,0.031,VALID,18.209,INVALID,360.0,VALID,0.0,
2018-06-12, 00:24:06,VALID,920.02,VALID,0.0,VALID,97.241,VALID,0.014,VALID,18.224,INVALID,360.0,VALID,0.0,
2018-06-12, 00:25:07,VALID,920.01,VALID,0.0,VALID,97.262,VALID,0.011,VALID,18.283,INVALID,360.0,VALID,0.0,
2018-06-12, 00:26:07,VALID,919.999,VALID,0.0,VALID,96.957,VALID,0.004,VALID,18.294,INVALID,360.0,VALID,0.0,
2018-06-12, 00:27:07,VALID,919.982,VALID,0.0,VALID,96.577,VALID,0.003,VALID,18.329,INVALID,360.0,VALID,0.0,
2018-06-12, 00:28:07,VALID,919.968,VALID,0.0,VALID,95.997,VALID,-0.006,VALID,18.313,INVALID,360.0,VALID,0.0,
2018-06-12, 00:29:07,VALID,919.97,VALID,0.0,VALID,96.335,VALID,-0.009,VALID,18.355,INVALID,360.0,VALID,0.0,
2018-06-12, 00:30:07,VALID,919.971,VALID,0.0,VALID,96.088,VALID,0.018,VALID,18.331,INVALID,360.0,VALID,0.0,
2018-06-12, 00:31:07,VALID,919.973,VALID,0.0,VALID,95.632,VALID,0.003,VALID,18.29,INVALID,360.0,VALID,0.0,
2018-06-12, 00:32:07,VALID,919.984,VALID,0.0,VALID,95.372,VALID,-0.025,VALID,18.234,INVALID,360.0,VALID,0.0,
2018-06-12, 00:33:07,VALID,919.995,VALID,0.0,VALID,95.644,VALID,-0.005,VALID,18.238,INVALID,360.0,VALID,0.0,
2018-06-12, 00:34:07,VALID,919.989,VALID,0.0,VALID,96.045,VALID,-0.0,VALID,18.32,INVALID,360.0,VALID,0.0,
2018-06-12, 00:35:07,VALID,919.965,VALID,0.0,VALID,96.504,VALID,-0.002,VALID,18.416,INVALID,360.0,VALID,0.0,
2018-06-12, 00:36:07,VALID,919.95,VALID,0.0,VALID,96.667,VALID,0.01,VALID,18.437,INVALID,360.0,VALID,0.0,
2018-06-12, 00:37:07,VALID,919.918,VALID,0.0,VALID,96.252,VALID,0.024,VALID,18.42,INVALID,360.0,VALID,0.0,
2018-06-12, 00:38:07,VALID,919.876,VALID,0.0,VALID,95.949,VALID,0.028,VALID,18.411,INVALID,360.0,VALID,0.0,
2018-06-12, 00:39:07,VALID,919.826,VALID,0.0,VALID,95.861,VALID,0.034,VALID,18.422,INVALID,360.0,VALID,0.0,
2018-06-12, 00:40:07,VALID,919.789,VALID,0.0,VALID,95.378,VALID,0.007,VALID,18.403,INVALID,360.0,VALID,0.0,
2018-06-12, 00:41:07,VALID,919.761,VALID,0.0,VALID,95.256,VALID,0.032,VALID,18.406,INVALID,360.0,VALID,0.0,
2018-06-12, 00:42:07,VALID,919.729,VALID,0.0,VALID,95.472,VALID,0.031,VALID,18.422,INVALID,360.0,VALID,0.0,
2018-06-12, 00:43:07,VALID,919.7,VALID,0.0,VALID,95.676,VALID,0.012,VALID,18.438,INVALID,360.0,VALID,0.0,
2018-06-12, 00:44:07,VALID,919.677,VALID,0.0,VALID,96.205,VALID,0.014,VALID,18.471,INVALID,360.0,VALID,0.0,
2018-06-12, 00:45:07,VALID,919.659,VALID,0.0,VALID,96.41,VALID,0.016,VALID,18.477,INVALID,360.0,VALID,0.0,
2018-06-12, 00:46:07,VALID,919.644,VALID,0.0,VALID,96.42,VALID,0.018,VALID,18.485,INVALID,360.0,VALID,0.0,
2018-06-12, 00:47:07,VALID,919.647,VALID,0.0,VALID,95.846,VALID,0.009,VALID,18.452,INVALID,360.0,VALID,0.0,
2018-06-12, 00:48:07,VALID,919.641,VALID,0.0,VALID,94.779,VALID,0.016,VALID,18.383,INVALID,360.0,VALID,0.0,
2018-06-12, 00:49:07,VALID,919.63,VALID,0.0,VALID,94.837,VALID,0.003,VALID,18.371,INVALID,360.0,VALID,0.0,
2018-06-12, 00:50:07,VALID,919.641,VALID,0.0,VALID,94.897,VALID,0.002,VALID,18.402,INVALID,360.0,VALID,0.0,
2018-06-12, 00:51:07,VALID,919.641,VALID,0.0,VALID,94.923,VALID,-0.002,VALID,18.452,INVALID,360.0,VALID,0.0,
2018-06-12, 00:52:07,VALID,919.654,VALID,0.0,VALID,94.631,VALID,-0.019,VALID,18.483,INVALID,360.0,VALID,0.0,
2018-06-12, 00:53:07,VALID,919.662,VALID,0.0,VALID,94.169,VALID,-0.02,VALID,18.481,INVALID,360.0,VALID,0.0,
2018-06-12, 00:54:07,VALID,919.645,VALID,0.0,VALID,94.053,VALID,-0.026,VALID,18.481,INVALID,360.0,VALID,0.0,
2018-06-12, 00:55:07,VALID,919.652,VALID,0.0,VALID,93.405,VALID,-0.033,VALID,18.414,INVALID,360.0,VALID,0.0,
2018-06-12, 00:56:07,VALID,919.646,VALID,0.0,VALID,93.198,VALID,-0.011,VALID,18.302,INVALID,360.0,VALID,0.0,
2018-06-12, 00:57:07,VALID,919.643,VALID,0.0,VALID,94.463,VALID,-0.018,VALID,18.28,INVALID,360.0,VALID,0.0,
2018-06-12, 00:58:07,VALID,919.647,VALID,0.0,VALID,94.625,VALID,-0.02,VALID,18.274,INVALID,360.0,VALID,0.0,
2018-06-12, 00:59:07,VALID,919.647,VALID,0.0,VALID,94.233,VALID,-0.022,VALID,18.3,INVALID,360.0,VALID,0.0,
2018-06-12, 01:00:07,VALID,919.652,VALID,0.0,VALID,94.297,VALID,-0.015,VALID,18.376,INVALID,360.0,VALID,0.0,
2018-06-12, 01:01:07,VALID,919.63,VALID,0.0,VALID,94.606,VALID,-0.013,VALID,18.465,INVALID,360.0,VALID,0.0,
2018-06-12, 01:02:07,VALID,919.606,VALID,0.0,VALID,94.353,VALID,-0.023,VALID,18.471,INVALID,360.0,VALID,0.0,
2018-06-12, 01:03:07,VALID,919.584,VALID,0.0,VALID,93.217,VALID,-0.026,VALID,18.408,INVALID,360.0,VALID,0.0,
2018-06-12, 01:04:07,VALID,919.563,VALID,0.0,VALID,93.489,VALID,-0.011,VALID,18.371,INVALID,360.0,VALID,0.0,
2018-06-12, 01:05:07,VALID,919.537,VALID,0.0,VALID,93.636,VALID,-0.012,VALID,18.348,INVALID,360.0,VALID,0.0,
2018-06-12, 01:06:07,VALID,919.515,VALID,0.0,VALID,94.508,VALID,-0.03,VALID,18.33,INVALID,360.0,VALID,0.0,
2018-06-12, 01:07:07,VALID,919.5,VALID,0.0,VALID,94.87,VALID,-0.011,VALID,18.293,INVALID,360.0,VALID,0.0,
2018-06-12, 01:08:07,VALID,919.482,VALID,0.0,VALID,95.082,VALID,-0.015,VALID,18.231,INVALID,360.0,VALID,0.0,
2018-06-12, 01:09:07,VALID,919.452,VALID,0.0,VALID,95.37,VALID,-0.017,VALID,18.193,INVALID,360.0,VALID,0.0,
2018-06-12, 01:10:07,VALID,919.44,VALID,0.0,VALID,95.509,VALID,-0.022,VALID,18.148,INVALID,360.0,VALID,0.0,
2018-06-12, 01:11:07,VALID,919.405,VALID,0.0,VALID,95.456,VALID,-0.037,VALID,18.146,INVALID,360.0,VALID,0.0,
2018-06-12, 01:12:07,VALID,919.398,VALID,0.0,VALID,95.386,VALID,-0.015,VALID,18.145,INVALID,360.0,VALID,0.0,
2018-06-12, 01:13:07,VALID,919.372,VALID,0.0,VALID,95.244,VALID,-0.027,VALID,18.156,INVALID,360.0,VALID,0.0,
2018-06-12, 01:14:07,VALID,919.352,VALID,0.0,VALID,95.249,VALID,-0.016,VALID,18.172,INVALID,360.0,VALID,0.0,
2018-06-12, 01:15:07,VALID,919.323,VALID,0.0,VALID,94.993,VALID,-0.02,VALID,18.138,INVALID,360.0,VALID,0.0,
2018-06-12, 01:16:07,VALID,919.319,VALID,0.0,VALID,95.112,VALID,-0.028,VALID,18.11,INVALID,360.0,VALID,0.0,
2018-06-12, 01:17:07,VALID,919.298,VALID,0.0,VALID,95.753,VALID,-0.011,VALID,18.125,INVALID,360.0,VALID,0.0,
2018-06-12, 01:18:07,VALID,919.297,VALID,0.0,VALID,95.976,VALID,-0.026,VALID,18.14,INVALID,360.0,VALID,0.0,
2018-06-12, 01:19:07,VALID,919.29,VALID,0.0,VALID,95.852,VALID,0.002,VALID,18.116,INVALID,360.0,VALID,0.0,
2018-06-12, 01:20:07,VALID,919.294,VALID,0.0,VALID,95.912,VALID,-0.018,VALID,18.105,INVALID,360.0,VALID,0.0,
2018-06-12, 01:21:07,VALID,919.294,VALID,0.0,VALID,95.794,VALID,-0.009,VALID,18.087,INVALID,360.0,VALID,0.0,
2018-06-12, 01:22:07,VALID,919.28,VALID,0.0,VALID,95.994,VALID,-0.013,VALID,18.126,INVALID,360.0,VALID,0.0,
2018-06-12, 01:23:07,VALID,919.269,VALID,0.0,VALID,95.665,VALID,-0.013,VALID,18.131,INVALID,360.0,VALID,0.0,
2018-06-12, 01:24:07,VALID,919.266,VALID,0.0,VALID,95.546,VALID,-0.005,VALID,18.096,INVALID,360.0,VALID,0.0,
2018-06-12, 01:25:07,VALID,919.261,VALID,0.0,VALID,95.447,VALID,-0.001,VALID,18.084,INVALID,360.0,VALID,0.0,
2018-06-12, 01:26:07,VALID,919.269,VALID,0.0,VALID,95.534,VALID,-0.0,VALID,18.122,INVALID,360.0,VALID,0.0,
2018-06-12, 01:27:07,VALID,919.268,VALID,0.0,VALID,95.515,VALID,0.012,VALID,18.152,INVALID,360.0,VALID,0.0,
2018-06-12, 01:28:07,VALID,919.258,VALID,0.0,VALID,95.391,VALID,-0.013,VALID,18.151,INVALID,360.0,VALID,0.0,
2018-06-12, 01:29:07,VALID,919.263,VALID,0.0,VALID,96.068,VALID,-0.017,VALID,18.178,INVALID,360.0,VALID,0.0,
2018-06-12, 01:30:07,VALID,919.271,VALID,0.0,VALID,96.64,VALID,-0.007,VALID,18.212,INVALID,360.0,VALID,0.0,
2018-06-12, 01:31:07,VALID,919.273,VALID,0.0,VALID,96.88,VALID,-0.001,VALID,18.236,INVALID,360.0,VALID,0.0,
2018-06-12, 01:32:07,VALID,919.284,VALID,0.0,VALID,97.105,VALID,-0.004,VALID,18.259,INVALID,360.0,VALID,0.0,
2018-06-12, 01:33:07,VALID,919.281,VALID,0.0,VALID,97.122,VALID,-0.009,VALID,18.235,INVALID,360.0,VALID,0.0,
2018-06-12, 01:34:07,VALID,919.281,VALID,0.0,VALID,96.458,VALID,-0.005,VALID,18.111,INVALID,360.0,VALID,0.0,
2018-06-12, 01:35:07,VALID,919.289,VALID,0.0,VALID,96.36,VALID,-0.017,VALID,18.076,INVALID,360.0,VALID,0.0,
2018-06-12, 01:36:07,VALID,919.289,VALID,0.0,VALID,96.173,VALID,-0.025,VALID,18.057,INVALID,360.0,VALID,0.0,
2018-06-12, 01:37:07,VALID,919.301,VALID,0.0,VALID,96.283,VALID,-0.006,VALID,18.068,INVALID,360.0,VALID,0.0,
2018-06-12, 01:38:07,VALID,919.302,VALID,0.0,VALID,96.599,VALID,-0.023,VALID,18.095,INVALID,360.0,VALID,0.0,
2018-06-12, 01:39:07,VALID,919.297,VALID,0.0,VALID,96.463,VALID,0.004,VALID,18.098,INVALID,360.0,VALID,0.0,
2018-06-12, 01:40:07,VALID,919.303,VALID,0.0,VALID,96.398,VALID,-0.0,VALID,18.091,INVALID,360.0,VALID,0.0,
2018-06-12, 01:41:07,VALID,919.31,VALID,0.0,VALID,95.985,VALID,-0.011,VALID,18.055,INVALID,360.0,VALID,0.0,
2018-06-12, 01:42:07,VALID,919.325,VALID,0.0,VALID,95.725,VALID,0.01,VALID,18.046,INVALID,360.0,VALID,0.0,
2018-06-12, 01:43:07,VALID,919.324,VALID,0.0,VALID,95.31,VALID,-0.005,VALID,18.03,INVALID,360.0,VALID,0.0,
2018-06-12, 01:44:07,VALID,919.305,VALID,0.0,VALID,95.037,VALID,-0.0,VALID,18.027,INVALID,360.0,VALID,0.0,
2018-06-12, 01:45:07,VALID,919.301,VALID,0.0,VALID,94.651,VALID,-0.009,VALID,18.017,INVALID,360.0,VALID,0.0,
2018-06-12, 01:46:07,VALID,919.298,VALID,0.0,VALID,94.447,VALID,-0.004,VALID,18.008,INVALID,360.0,VALID,0.0,
2018-06-12, 01:47:07,VALID,919.297,VALID,0.0,VALID,94.635,VALID,-0.004,VALID,18.001,INVALID,360.0,VALID,0.0,
2018-06-12, 01:48:07,VALID,919.316,VALID,0.0,VALID,94.687,VALID,-0.004,VALID,18.011,INVALID,360.0,VALID,0.0,
2018-06-12, 01:49:07,VALID,919.332,VALID,0.0,VALID,94.608,VALID,0.013,VALID,18.002,INVALID,360.0,VALID,0.0,
2018-06-12, 01:50:07,VALID,919.347,VALID,0.0,VALID,94.611,VALID,0.017,VALID,18.0,INVALID,360.0,VALID,0.0,
2018-06-12, 01:51:07,VALID,919.337,VALID,0.0,VALID,94.63,VALID,0.02,VALID,18.036,INVALID,360.0,VALID,0.0,
2018-06-12, 01:52:07,VALID,919.337,VALID,0.0,VALID,93.816,VALID,0.017,VALID,18.052,INVALID,360.0,VALID,0.0,
2018-06-12, 01:53:07,VALID,919.332,VALID,0.0,VALID,93.821,VALID,0.014,VALID,18.024,INVALID,360.0,VALID,0.0,
2018-06-12, 01:54:07,VALID,919.323,VALID,0.0,VALID,93.693,VALID,0.0,VALID,17.956,INVALID,360.0,VALID,0.0,
2018-06-12, 01:55:07,VALID,919.314,VALID,0.0,VALID,93.57,VALID,0.021,VALID,17.897,INVALID,360.0,VALID,0.0,
2018-06-12, 01:56:07,VALID,919.31,VALID,0.0,VALID,93.217,VALID,0.036,VALID,17.809,INVALID,360.0,VALID,0.0,
2018-06-12, 01:57:07,VALID,919.311,VALID,0.0,VALID,93.816,VALID,0.037,VALID,17.802,INVALID,360.0,VALID,0.0,
2018-06-12, 01:58:07,VALID,919.317,VALID,0.0,VALID,92.835,VALID,0.026,VALID,17.893,INVALID,360.0,VALID,0.0,
2018-06-12, 01:59:07,VALID,919.317,VALID,0.0,VALID,92.225,VALID,0.014,VALID,17.932,INVALID,360.0,VALID,0.0,
2018-06-12, 02:00:07,VALID,919.298,VALID,0.0,VALID,92.344,VALID,0.025,VALID,17.944,INVALID,360.0,VALID,0.0,
2018-06-12, 02:01:07,VALID,919.274,VALID,0.0,VALID,92.743,VALID,0.029,VALID,17.94,INVALID,360.0,VALID,0.0,
2018-06-12, 02:02:07,VALID,919.242,VALID,0.0,VALID,92.997,VALID,0.015,VALID,17.917,INVALID,360.0,VALID,0.0,
2018-06-12, 02:03:07,VALID,919.21,VALID,0.0,VALID,94.079,VALID,0.024,VALID,17.897,INVALID,360.0,VALID,0.0,
2018-06-12, 02:04:07,VALID,919.197,VALID,0.0,VALID,94.451,VALID,0.012,VALID,17.867,INVALID,360.0,VALID,0.0,
2018-06-12, 02:05:07,VALID,919.181,VALID,0.0,VALID,95.376,VALID,0.023,VALID,17.847,INVALID,360.0,VALID,0.0,
2018-06-12, 02:06:07,VALID,919.163,VALID,0.0,VALID,96.395,VALID,0.022,VALID,17.905,INVALID,360.0,VALID,0.0,
2018-06-12, 02:07:07,VALID,919.149,VALID,0.0,VALID,96.404,VALID,0.033,VALID,17.884,INVALID,360.0,VALID,0.0,
2018-06-12, 02:08:07,VALID,919.137,VALID,0.0,VALID,96.879,VALID,0.033,VALID,17.967,INVALID,360.0,VALID,0.0,
2018-06-12, 02:09:07,VALID,919.123,VALID,0.0,VALID,96.876,VALID,0.025,VALID,18.021,INVALID,360.0,VALID,0.0,
2018-06-12, 02:10:07,VALID,919.118,VALID,0.0,VALID,96.27,VALID,0.02,VALID,18.041,INVALID,360.0,VALID,0.0,
2018-06-12, 02:11:07,VALID,919.115,VALID,0.0,VALID,95.971,VALID,0.014,VALID,18.063,INVALID,360.0,VALID,0.0,
2018-06-12, 02:12:07,VALID,919.116,VALID,0.0,VALID,95.614,VALID,0.016,VALID,18.105,INVALID,360.0,VALID,0.0,
2018-06-12, 02:13:07,VALID,919.107,VALID,0.0,VALID,95.225,VALID,0.025,VALID,18.123,INVALID,360.0,VALID,0.0,
2018-06-12, 02:14:07,VALID,919.112,VALID,0.0,VALID,94.765,VALID,0.016,VALID,18.104,INVALID,360.0,VALID,0.0,
2018-06-12, 02:15:07,VALID,919.114,VALID,0.0,VALID,94.203,VALID,0.032,VALID,18.073,INVALID,360.0,VALID,0.0,
2018-06-12, 02:16:07,VALID,919.11,VALID,0.0,VALID,93.627,VALID,0.034,VALID,18.008,INVALID,360.0,VALID,0.0,
2018-06-12, 02:17:07,VALID,919.095,VALID,0.0,VALID,93.601,VALID,0.033,VALID,17.959,INVALID,360.0,VALID,0.0,
2018-06-12, 02:18:07,VALID,919.084,VALID,0.0,VALID,93.257,VALID,0.022,VALID,17.973,INVALID,360.0,VALID,0.0,
2018-06-12, 02:19:07,VALID,919.085,VALID,0.0,VALID,92.4,VALID,0.001,VALID,18.03,INVALID,360.0,VALID,0.0,
2018-06-12, 02:20:07,VALID,919.063,VALID,0.0,VALID,91.682,VALID,0.013,VALID,18.1,INVALID,360.0,VALID,0.0,
2018-06-12, 02:21:07,VALID,919.056,VALID,0.0,VALID,91.608,VALID,0.011,VALID,18.113,INVALID,360.0,VALID,0.0,
2018-06-12, 02:22:07,VALID,919.046,VALID,0.0,VALID,91.871,VALID,-0.005,VALID,18.089,INVALID,360.0,VALID,0.0,
2018-06-12, 02:23:07,VALID,919.04,VALID,0.0,VALID,92.168,VALID,-0.001,VALID,18.063,INVALID,360.0,VALID,0.0,
2018-06-12, 02:24:07,VALID,919.027,VALID,0.0,VALID,92.307,VALID,-0.005,VALID,18.046,INVALID,360.0,VALID,0.0,
2018-06-12, 02:25:07,VALID,919.021,VALID,0.0,VALID,92.341,VALID,0.017,VALID,18.041,INVALID,360.0,VALID,0.0,
2018-06-12, 02:26:07,VALID,919.018,VALID,0.0,VALID,92.445,VALID,0.008,VALID,18.039,INVALID,360.0,VALID,0.0,
2018-06-12, 02:27:07,VALID,919.037,VALID,0.0,VALID,92.565,VALID,0.006,VALID,18.041,INVALID,360.0,VALID,0.0,
2018-06-12, 02:28:06,VALID,919.06,VALID,0.0,VALID,92.805,VALID,0.015,VALID,18.048,INVALID,360.0,VALID,0.0,
2018-06-12, 02:29:06,VALID,919.052,VALID,0.0,VALID,92.988,VALID,0.027,VALID,18.083,INVALID,360.0,VALID,0.0,
2018-06-12, 02:30:06,VALID,919.056,VALID,0.0,VALID,92.813,VALID,0.01,VALID,18.125,INVALID,360.0,VALID,0.0,
2018-06-12, 02:31:06,VALID,919.057,VALID,0.0,VALID,92.586,VALID,0.027,VALID,18.148,INVALID,360.0,VALID,0.0,
2018-06-12, 02:32:06,VALID,919.075,VALID,0.0,VALID,92.176,VALID,0.011,VALID,18.123,INVALID,360.0,VALID,0.0,
2018-06-12, 02:33:06,VALID,919.077,VALID,0.0,VALID,92.575,VALID,-0.004,VALID,18.082,INVALID,360.0,VALID,0.0,
2018-06-12, 02:34:06,VALID,919.08,VALID,0.0,VALID,92.717,VALID,0.004,VALID,18.081,INVALID,360.0,VALID,0.0,
2018-06-12, 02:35:06,VALID,919.083,VALID,0.0,VALID,92.613,VALID,-0.007,VALID,18.088,INVALID,360.0,VALID,0.0,
2018-06-12, 02:36:06,VALID,919.082,VALID,0.0,VALID,92.388,VALID,-0.005,VALID,18.105,INVALID,360.0,VALID,0.0,
2018-06-12, 02:37:06,VALID,919.081,VALID,0.0,VALID,92.091,VALID,0.007,VALID,18.127,INVALID,360.0,VALID,0.0,
2018-06-12, 02:38:06,VALID,919.067,VALID,0.0,VALID,91.684,VALID,0.008,VALID,18.12,INVALID,360.0,VALID,0.0,
2018-06-12, 02:39:06,VALID,919.054,VALID,0.0,VALID,91.019,VALID,0.015,VALID,18.112,INVALID,360.0,VALID,0.0,
2018-06-12, 02:40:06,VALID,919.05,VALID,0.0,VALID,90.952,VALID,-0.0,VALID,18.116,INVALID,360.0,VALID,0.0,
2018-06-12, 02:41:06,VALID,919.037,VALID,0.0,VALID,91.107,VALID,-0.013,VALID,18.098,INVALID,360.0,VALID,0.0,
2018-06-12, 02:42:06,VALID,919.043,VALID,0.0,VALID,91.438,VALID,0.006,VALID,18.088,INVALID,360.0,VALID,0.0,
2018-06-12, 02:43:06,VALID,919.019,VALID,0.0,VALID,92.07,VALID,0.015,VALID,18.093,INVALID,360.0,VALID,0.0,
2018-06-12, 02:44:06,VALID,918.997,VALID,0.0,VALID,92.019,VALID,0.011,VALID,18.111,INVALID,360.0,VALID,0.0,
2018-06-12, 02:45:06,VALID,918.977,VALID,0.0,VALID,91.732,VALID,0.006,VALID,18.13,INVALID,360.0,VALID,0.0,
2018-06-12, 02:46:06,VALID,918.955,VALID,0.0,VALID,91.564,VALID,-0.002,VALID,18.162,INVALID,360.0,VALID,0.0,
2018-06-12, 02:47:06,VALID,918.94,VALID,0.0,VALID,91.571,VALID,0.019,VALID,18.169,INVALID,360.0,VALID,0.0,
2018-06-12, 02:48:06,VALID,918.912,VALID,0.0,VALID,91.555,VALID,0.008,VALID,18.151,INVALID,360.0,VALID,0.0,
2018-06-12, 02:49:06,VALID,918.89,VALID,0.0,VALID,91.429,VALID,-0.002,VALID,18.156,INVALID,360.0,VALID,0.0,
2018-06-12, 02:50:06,VALID,918.875,VALID,0.0,VALID,91.324,VALID,0.01,VALID,18.158,INVALID,360.0,VALID,0.0,
2018-06-12, 02:51:06,VALID,918.856,VALID,0.0,VALID,91.251,VALID,0.005,VALID,18.18,INVALID,360.0,VALID,0.0,
2018-06-12, 02:52:06,VALID,918.83,VALID,0.0,VALID,91.28,VALID,-0.007,VALID,18.195,INVALID,360.0,VALID,0.0,
2018-06-12, 02:53:06,VALID,918.812,VALID,0.0,VALID,91.409,VALID,0.005,VALID,18.157,INVALID,360.0,VALID,0.0,
2018-06-12, 02:54:06,VALID,918.785,VALID,0.0,VALID,91.658,VALID,0.022,VALID,18.124,INVALID,360.0,VALID,0.0,
2018-06-12, 02:55:06,VALID,918.779,VALID,0.0,VALID,91.921,VALID,0.009,VALID,18.092,INVALID,360.0,VALID,0.0,
2018-06-12, 02:56:06,VALID,918.774,VALID,0.0,VALID,92.018,VALID,-0.001,VALID,18.095,INVALID,360.0,VALID,0.0,
2018-06-12, 02:57:06,VALID,918.77,VALID,0.0,VALID,91.86,VALID,-0.009,VALID,18.109,INVALID,360.0,VALID,0.0,
2018-06-12, 02:58:06,VALID,918.764,VALID,0.0,VALID,91.221,VALID,0.005,VALID,18.25,INVALID,360.0,VALID,0.0,
2018-06-12, 02:59:06,VALID,918.78,VALID,0.0,VALID,90.895,VALID,0.033,VALID,18.315,INVALID,360.0,VALID,0.0,
2018-06-12, 03:00:06,VALID,918.783,VALID,0.0,VALID,91.019,VALID,0.019,VALID,18.335,INVALID,360.0,VALID,0.0,
2018-06-12, 03:01:06,VALID,918.768,VALID,0.0,VALID,91.208,VALID,-0.009,VALID,18.305,INVALID,360.0,VALID,0.0,
2018-06-12, 03:02:06,VALID,918.751,VALID,0.0,VALID,91.386,VALID,-0.005,VALID,18.27,INVALID,360.0,VALID,0.0,
2018-06-12, 03:03:06,VALID,918.719,VALID,0.0,VALID,91.645,VALID,0.028,VALID,18.215,INVALID,360.0,VALID,0.0,
2018-06-12, 03:04:06,VALID,918.709,VALID,0.0,VALID,92.025,VALID,0.016,VALID,18.141,INVALID,360.0,VALID,0.0,
2018-06-12, 03:05:06,VALID,918.704,VALID,0.0,VALID,92.769,VALID,-0.015,VALID,18.089,INVALID,360.0,VALID,0.0,
2018-06-12, 03:06:06,VALID,918.701,VALID,0.0,VALID,93.118,VALID,-0.011,VALID,18.06,INVALID,360.0,VALID,0.0,
2018-06-12, 03:07:06,VALID,918.702,VALID,0.0,VALID,94.062,VALID,-0.006,VALID,18.085,INVALID,360.0,VALID,0.0,
2018-06-12, 03:08:06,VALID,918.701,VALID,0.0,VALID,94.852,VALID,0.0,VALID,18.12,INVALID,360.0,VALID,0.0,
2018-06-12, 03:09:06,VALID,918.703,VALID,0.0,VALID,94.6,VALID,-0.021,VALID,18.143,INVALID,360.0,VALID,0.0,
2018-06-12, 03:10:06,VALID,918.696,VALID,0.0,VALID,94.174,VALID,-0.009,VALID,18.12,INVALID,360.0,VALID,0.0,
2018-06-12, 03:11:06,VALID,918.7,VALID,0.0,VALID,93.501,VALID,-0.018,VALID,18.079,INVALID,360.0,VALID,0.0,
2018-06-12, 03:12:06,VALID,918.693,VALID,0.0,VALID,93.053,VALID,-0.007,VALID,18.022,INVALID,360.0,VALID,0.0,
2018-06-12, 03:13:06,VALID,918.674,VALID,0.0,VALID,92.925,VALID,-0.024,VALID,18.041,INVALID,360.0,VALID,0.0,
2018-06-12, 03:14:06,VALID,918.678,VALID,0.0,VALID,92.81,VALID,-0.032,VALID,18.043,INVALID,360.0,VALID,0.0,
2018-06-12, 03:15:06,VALID,918.652,VALID,0.0,VALID,92.687,VALID,-0.02,VALID,18.06,INVALID,360.0,VALID,0.0,
2018-06-12, 03:16:06,VALID,918.64,VALID,0.0,VALID,92.627,VALID,-0.02,VALID,18.073,INVALID,360.0,VALID,0.0,
2018-06-12, 03:17:06,VALID,918.634,VALID,0.0,VALID,92.494,VALID,-0.024,VALID,18.094,INVALID,360.0,VALID,0.0,
2018-06-12, 03:18:06,VALID,918.625,VALID,0.0,VALID,92.064,VALID,-0.037,VALID,18.163,INVALID,360.0,VALID,0.0,
2018-06-12, 03:19:06,VALID,918.61,VALID,0.0,VALID,91.661,VALID,0.012,VALID,18.227,INVALID,360.0,VALID,0.0,
2018-06-12, 03:20:06,VALID,918.608,VALID,0.0,VALID,91.123,VALID,0.012,VALID,18.271,INVALID,360.0,VALID,0.0,
2018-06-12, 03:21:06,VALID,918.609,VALID,0.0,VALID,90.749,VALID,0.012,VALID,18.329,INVALID,360.0,VALID,0.0,
2018-06-12, 03:22:06,VALID,918.62,VALID,0.0,VALID,90.797,VALID,0.016,VALID,18.337,INVALID,360.0,VALID,0.0,
2018-06-12, 03:23:06,VALID,918.629,VALID,0.0,VALID,90.368,VALID,0.024,VALID,18.299,INVALID,360.0,VALID,0.0,
2018-06-12, 03:24:06,VALID,918.616,VALID,0.0,VALID,89.962,VALID,-0.008,VALID,18.327,INVALID,360.0,VALID,0.0,
2018-06-12, 03:25:06,VALID,918.625,VALID,0.0,VALID,89.302,VALID,0.014,VALID,18.334,INVALID,360.0,VALID,0.0,
2018-06-12, 03:26:06,VALID,918.592,VALID,0.0,VALID,89.092,VALID,0.003,VALID,18.342,INVALID,360.0,VALID,0.0,
2018-06-12, 03:27:06,VALID,918.58,VALID,0.0,VALID,88.793,VALID,0.004,VALID,18.313,INVALID,360.0,VALID,0.0,
2018-06-12, 03:28:06,VALID,918.559,VALID,0.0,VALID,88.823,VALID,0.003,VALID,18.251,INVALID,360.0,VALID,0.0,
2018-06-12, 03:29:06,VALID,918.537,VALID,0.0,VALID,88.172,VALID,0.005,VALID,18.236,INVALID,360.0,VALID,0.0,
2018-06-12, 03:30:06,VALID,918.529,VALID,0.0,VALID,87.663,VALID,0.011,VALID,18.31,INVALID,360.0,VALID,0.0,
2018-06-12, 03:31:06,VALID,918.519,VALID,0.0,VALID,87.853,VALID,-0.007,VALID,18.379,INVALID,360.0,VALID,0.0,
2018-06-12, 03:32:06,VALID,918.493,VALID,0.0,VALID,88.487,VALID,0.005,VALID,18.357,INVALID,360.0,VALID,0.0,
2018-06-12, 03:33:06,VALID,918.474,VALID,0.0,VALID,89.092,VALID,0.01,VALID,18.307,INVALID,360.0,VALID,0.0,
2018-06-12, 03:34:06,VALID,918.455,VALID,0.0,VALID,89.294,VALID,0.009,VALID,18.245,INVALID,360.0,VALID,0.0,
2018-06-12, 03:35:06,VALID,918.441,VALID,0.0,VALID,89.344,VALID,-0.007,VALID,18.203,INVALID,360.0,VALID,0.0,
2018-06-12, 03:36:06,VALID,918.434,VALID,0.0,VALID,89.408,VALID,-0.02,VALID,18.188,INVALID,360.0,VALID,0.0,
2018-06-12, 03:37:06,VALID,918.409,VALID,0.0,VALID,89.555,VALID,-0.025,VALID,18.182,INVALID,360.0,VALID,0.0,
2018-06-12, 03:38:06,VALID,918.397,VALID,0.0,VALID,89.859,VALID,-0.003,VALID,18.148,INVALID,360.0,VALID,0.0,